Location: Kiltepe
(36.4752°N, 30.0120°E)
Time: 18:52:42
(UTC+00:00)

Okean 1-7 Rocket - Pass Details

Date: 03 August 2024
Orbit: 613 x 645 km, 82.5° (Epoch: 18 September)

Event Time Altitude Azimuth Distance (km) Brightness Sun altitude
Exits shadow 19:16:54 40° 57° (ENE) 925 4.3 -23.1°
Drops below altitude 10° 19:20:13 10° 20° (NNE) 2,001 6.5 -23.6°
Sets 19:22:31 0° 14° (NNE) 2,917 7.5 -23.9°
